Tracking 17856 objects as of 27-September-2016
HD Live streaming from Space Station
objects crossing your sky now

AMC-10 (GE-10)

Track AMC-10 (GE-10) now!
AMC-10 (GE-10) is classified as:


NORAD ID: 28154
Int'l Code: 2004-003A
Perigee: 35,853.3 km
Apogee: 35,886.9 km
Inclination: 0.0 °
Period: 1,440.0 minutes
Semi major axis: 42241 km
RCS: 21.2115 m2 (large)
Launch date: February 5, 2004
Source: SOCIETE EUROPEENNE DES SATELLITES (SES)
Launch site: AIR FORCE EASTERN TEST RANGE (AFETR)

24 C-band transponders.
Your satellite tracking list
Your tracking list is empty





NASA's NSSDC Master Catalog

Two Line Element Set (TLE):
1 28154U 04003A   16270.91299878  .00000000  00000-0  10000-3 0  9990
2 28154   0.0109 256.2655 0003980 212.9115  90.7068  1.00273297 46331
Source of the keplerian elements: AFSPC

N2YO: 605